Flag for Austria Weather past 2 weeks in Klagenfurt, Carinthia, Austria

Now
63 °F

Broken clouds.


Feels Like: 63 °F
Forecast: 55 / 71 °F
Wind: 6 mph from East

Location: Klagenfurt-Flughafen

Current Time: Jul 30, 2015 at 4:30:00 PM

Latest Report: Jul 30, 2015 at 3:50 PM


Visibility: N/A

Pressure: 29.98 "Hg

Humidity: 77%

Dew point: 55 °F

Location of KlagenfurtLocation

Historic Weather in Klagenfurt — Graph

°F

Klagenfurt temperature yesterday

Maximum temperature yesterday: 64 °F (at 12:20 AM)
Minimum temperature yesterday: 59 °F (at 9:20 AM)
Average temperature yesterday: 62 °F

Past Weeks' High & Low Weather Summary

 TemperatureHumidityPressure
High93 °F (Jul 19, 3:50 PM)100% (Jul 16, 3:50 AM)30.18 "Hg (Jul 16, 3:50 AM)
Low59 °F (Jul 26, 1:20 AM)31% (Jul 18, 4:20 PM)29.77 "Hg (Jul 25, 5:20 PM)
Average72 °F73%29.98 "Hg
* Reported Jul 15 3:20 PM — Jul 30 3:20 PM, Klagenfurt, Weather by CustomWeather, © 2015

Note: Actual official high and low records may vary slightly from our data, if they occured in-between our weather recording intervals... More about our weather records

Advertising

Klagenfurt weather history for previous 24 hours

 ConditionsComfort  
Time TempWeatherWind HumidityBarometerVisibility
3:20 PM
Thu, Jul 30
63 °FBroken clouds.5 mph77%29.98 "HgN/A
2:50 PM63 °FBroken clouds.6 mph77%29.98 "HgN/A
2:20 PM63 °FScattered showers. Broken clouds.6 mph83%29.98 "HgN/A
1:50 PM63 °FScattered showers. Broken clouds.7 mph77%29.98 "HgN/A
1:20 PM63 °FBroken clouds.3 mph83%29.98 "HgN/A
12:50 PM63 °FBroken clouds.2 mph83%30.01 "HgN/A
12:20 PM63 °FBroken clouds.3 mph83%30.01 "HgN/A
11:50 AM61 °FDrizzle. Broken clouds.2 mph88%29.98 "HgN/A
11:20 AM61 °FBroken clouds.3 mph88%30.01 "HgN/A
10:50 AM61 °FBroken clouds.3 mph88%30.01 "HgN/A
10:20 AM61 °FBroken clouds.3 mph88%29.98 "HgN/A
9:50 AM59 °FSprinkles. Partly sunny.2 mph88%29.98 "HgN/A
9:20 AM59 °FSprinkles. Broken clouds.3 mph94%29.98 "HgN/A
8:50 AM59 °FSprinkles. Broken clouds.5 mph94%29.98 "HgN/A
8:20 AM59 °FRain showers. Broken clouds.7 mph94%29.98 "Hg6 mi
7:50 AM61 °FLight rain. Partly sunny.6 mph88%29.98 "Hg4 mi
7:20 AM59 °FRain. Partly sunny.3 mph100%29.95 "Hg4 mi
6:50 AM59 °FRain. Fog.2 mph100%29.95 "Hg3 mi
6:20 AM59 °FLight rain. Mostly cloudy.2 mph100%29.95 "Hg4 mi
5:50 AM59 °FRain. Mostly cloudy.2 mph100%29.95 "Hg4 mi
5:20 AM59 °FRain. Passing clouds.2 mph100%29.95 "Hg6 mi
4:50 AM59 °FLight rain. Passing clouds.1 mph100%29.95 "HgN/A
4:20 AM61 °FRain showers. Passing clouds.2 mph94%29.92 "Hg5 mi
3:50 AM59 °FSprinkles. Passing clouds.2 mph100%29.92 "HgN/A
3:20 AM59 °FLight rain. Partly cloudy.2 mph100%29.95 "HgN/A
2:50 AM59 °FLight rain. Passing clouds.1 mph100%29.95 "Hg6 mi
2:20 AM59 °FRain showers. Passing clouds.1 mph100%29.95 "HgN/A
1:50 AM59 °FSprinkles. Partly cloudy.1 mph100%29.95 "HgN/A
1:20 AM59 °FSprinkles. Passing clouds.2 mph100%29.95 "HgN/A
12:50 AM59 °FPartly cloudy.1 mph100%29.95 "HgN/A
12:20 AM61 °FRain. Passing clouds.2 mph94%29.92 "HgN/A
11:50 PM
Wed, Jul 29
61 °FLight rain. Passing clouds.1 mph94%29.95 "HgN/A
11:20 PM61 °FLight rain. Passing clouds.2 mph94%29.95 "HgN/A
10:50 PM61 °FLight rain. Passing clouds.2 mph94%29.92 "HgN/A
10:20 PM61 °FRain. Partly cloudy.2 mph94%29.92 "HgN/A
9:50 PM61 °FRain. Partly cloudy.5 mph94%29.95 "Hg5 mi
9:20 PM63 °FRain. Broken clouds.2 mph94%29.92 "Hg5 mi
8:50 PM63 °FLight rain. More clouds than sun.2 mph88%29.92 "HgN/A
8:20 PM63 °FBroken clouds.3 mph88%29.89 "HgN/A
7:50 PM63 °FBroken clouds.3 mph88%29.92 "HgN/A
7:20 PM63 °FBroken clouds.2 mph83%29.89 "HgN/A
6:50 PM63 °FBroken clouds.2 mph88%29.86 "HgN/A
6:20 PM63 °FBroken clouds.2 mph88%29.86 "HgN/A
5:50 PM63 °FBroken clouds.3 mph88%29.86 "HgN/A
5:20 PM63 °FBroken clouds.2 mph88%29.89 "HgN/A
4:50 PM63 °FBroken clouds.3 mph88%29.89 "HgN/A
4:20 PM63 °FBroken clouds.3 mph88%29.89 "HgN/A
Weather by CustomWeather, © 2015

See weather overviewHow to use our weather pages